logo meteoveneto

Diretta Meteo Reggio Calabria, Italiasabato 22 giugno ore 07:20

Mappa
Sereno 26 °C Sereno 24 Ore: T.min 25 T.max 37
Ponente Nord Km/h 31.5 Punto di rugiada: 21 °C Umidità: 73% Visibilità: 10 Km
Il sole sorge alle: 05:33 Il sole tramonta alle: 20:25
22 Giugno 2024 07:20 tempo osservato: Sereno Sereno 26 73 1013 vento: Nord N 31.5
22 Giugno 2024 06:50 tempo osservato: Sereno Sereno 26 73 1013 vento: Nord N 35.2
22 Giugno 2024 06:20 tempo osservato: Sereno Sereno 25 73 1012 vento: Nord N 37
22 Giugno 2024 05:50 tempo osservato: Sereno Sereno 25 78 1012 vento: Nord N 35.2
22 Giugno 2024 05:20 tempo osservato: Sereno Sereno 25 78 1012 vento: Nord N 35.2
22 Giugno 2024 04:50 tempo osservato: Sereno Sereno 25 78 1012 vento: Nord N 37
22 Giugno 2024 04:20 tempo osservato: Sereno Sereno 26 69 1012 vento: Nord N 29.6
22 Giugno 2024 03:50 tempo osservato: Sereno Sereno 27 57 1012 vento: Nord N 29.6
22 Giugno 2024 03:20 tempo osservato: Sereno Sereno 27 54 1013 vento: Nord N 31.5
22 Giugno 2024 02:50 tempo osservato: Sereno Sereno 27 57 1013 vento: Nord N 29.6
22 Giugno 2024 02:20 tempo osservato: Sereno Sereno 28 39 1013 vento: Nord N 27.8
22 Giugno 2024 01:50 tempo osservato: Sereno Sereno 28 37 1013 vento: Nord N 24
22 Giugno 2024 01:20 tempo osservato: Sereno Sereno 29 37 1014 vento: Nord N/NE 20.3
22 Giugno 2024 00:50 tempo osservato: Sereno Sereno 29 42 1014 vento: Nord N/NE 22.2
22 Giugno 2024 00:20 tempo osservato: Sereno Sereno 28 48 1014 vento: Nord N 27.8
21 Giugno 2024 23:50 tempo osservato: Sereno Sereno 27 57 1014 vento: Nord N 29.6
21 Giugno 2024 23:20 tempo osservato: Sereno Sereno 27 61 1014 vento: Nord N 33.3
21 Giugno 2024 22:50 tempo osservato: Sereno Sereno 28 54 1013 vento: Nord N 31.5
21 Giugno 2024 22:20 tempo osservato: Sereno Sereno 29 42 1013 vento: Nord N 29.6
21 Giugno 2024 21:50 tempo osservato: Sereno Sereno 29 39 1013 vento: Nord N/NE 25.9
21 Giugno 2024 21:20 tempo osservato: Sereno Sereno 29 39 1013 vento: Nord N/NE 22.2
21 Giugno 2024 20:50 tempo osservato: Sereno Sereno 30 33 1013 vento: Nord N/NE 22.2
21 Giugno 2024 20:20 tempo osservato: Sereno Sereno 30 37 1013 vento: Nord N 25.9
21 Giugno 2024 19:50 tempo osservato: Sereno Sereno 31 31 1013 vento: Nord N 29.6
21 Giugno 2024 19:20 tempo osservato: Sereno Sereno 32 29 1013 vento: Nord N 25.9
21 Giugno 2024 18:50 tempo osservato: Sereno Sereno 32 27 1013 vento: Nord N 24
21 Giugno 2024 18:20 tempo osservato: Sereno Sereno 33 26 1013 vento: Nord N 27.8
21 Giugno 2024 17:50 tempo osservato: Sereno Sereno 33 26 1013 vento: Nord N 31.5
21 Giugno 2024 17:20 tempo osservato: Sereno Sereno 34 24 1013 vento: Nord N 29.6
21 Giugno 2024 16:50 tempo osservato: Poco Nuvoloso Poco Nuvoloso 35 21 1013 vento: Nord N 27.8
21 Giugno 2024 16:20 tempo osservato: Sereno Sereno 35 23 1013 vento: Nord N 27.8
21 Giugno 2024 15:50 tempo osservato: Sereno Sereno 35 24 1013 vento: Nord N 22.2
21 Giugno 2024 15:20 tempo osservato: Sereno Sereno 33 31 1014 vento: Nord S 9.3
21 Giugno 2024 14:50 tempo osservato: Sereno Sereno 34 28 1014 vento: Nord O/SO 11.1
21 Giugno 2024 14:20 tempo osservato: Poco Nuvoloso Poco Nuvoloso 34 26 1014 vento: Nord O 18.5
21 Giugno 2024 13:50 tempo osservato: Poco Nuvoloso Poco Nuvoloso 37 25 1014 vento: Nord NO 13
21 Giugno 2024 13:20 tempo osservato: Sereno Sereno 37 22 1014 vento: Nord N/NO 18.5
21 Giugno 2024 12:50 tempo osservato: Sereno Sereno 37 20 1014 vento: Nord N 18.5
21 Giugno 2024 12:20 tempo osservato: Sereno Sereno 37 22 1014 vento: Nord N 18.5
21 Giugno 2024 11:50 tempo osservato: Poco Nuvoloso Poco Nuvoloso 36 22 1014 vento: Nord N 25.9
21 Giugno 2024 11:20 tempo osservato: Sereno Sereno 35 24 1014 vento: Nord N 25.9
21 Giugno 2024 10:50 tempo osservato: Poco Nuvoloso Poco Nuvoloso 36 22 1014 vento: Nord N 24
21 Giugno 2024 10:20 tempo osservato: Sereno Sereno 35 24 1014 vento: Nord N 20.3
21 Giugno 2024 09:50 tempo osservato: Sereno Sereno 35 24 1014 vento: Nord N 20.3
21 Giugno 2024 09:20 tempo osservato: Sereno Sereno 34 24 1014 vento: Nord N 16.7
21 Giugno 2024 08:50 tempo osservato: Sereno Sereno 33 27 1015 vento: Nord N/NO 14.8
21 Giugno 2024 08:20 tempo osservato: Sereno Sereno 33 29 1015 vento: Nord NO 9.3
21 Giugno 2024 07:50 tempo osservato: Sereno Sereno 33 27 1014 vento: Nord NE 7.4